Lid_Strength_Index
0 0 0 1 1 0 0 0 0 0 0 0 0 0 -1 -0 1 1 1 -1 2 4 3 3 3 4 4 5 7 6 6 6 6 9 10 10 11 10 11 9 11 11 12 13 12 14 16 6 6 10 7 5 5 5
0 0 0 0 0 0 0 0 0 0 0 0 -0 -0 -0 -0 -0 -0 2 -0 -1 3 3 1 1 1 1 2 4 4 6 6 5 8 8 8 10 9 10 13 8 12 9 11 10 11 6 5 6 4 4 5 5 5
0 0 0 0 0 0 0 0 0 0 0 -0 -0 -0 -0 -1 -1 -1 0 -0 1 4 4 3 4 1 -0 0 -0 6 4 3 4 3 6 8 10 8 12 11 10 8 6 9 9 7 7 5 4 4 4 4 4 4
0 0 0 0 0 0 0 0 0 0 -0 0 0 -0 -0 -1 -1 -1 0 -1 1 4 7 5 0 2 -0 -0 0 1 2 2 2 3 7 8 9 6 9 8 9 8 7 8 8 7 6 5 5 4 4 3 4 3
0 0 0 0 0 0 0 0 0 0 0 -0 -0 -0 -0 -1 -1 -2 -2 -1 -1 4 8 5 2 1 0 0 1 1 2 3 5 7 8 9 6 7 6 7 9 6 8 10 11 6 6 6 4 4 4 4 4 4
1 1 1 1 0 0 0 0 0 -0 -0 -0 -0 0 -0 -1 -1 -1 3 -0 -0 2 5 8 2 2 1 1 2 2 2 3 5 6 7 6 4 7 10 10 7 6 5 5 6 4 4 4 4 3 4 4 3 4
1 1 0 0 0 -0 -0 -0 -0 -1 -0 -0 0 0 -1 -1 -1 3 3 1 -1 -1 4 7 6 3 2 2 2 3 2 3 4 6 7 6 6 6 9 11 6 5 5 5 4 5 7 6 6 4 3 3 3 3
0 0 -0 -0 -1 -1 -1 -1 -1 -1 -0 0 -0 -1 -1 0 1 2 -0 -0 -1 2 3 8 7 5 2 5 5 2 5 5 6 6 5 7 6 6 10 7 6 5 5 6 6 5 5 5 4 4 4 4 4 4
-0 -0 -1 -1 -1 -1 -1 -1 -1 -0 -0 -1 -1 -0 0 1 2 1 0 0 -0 2 7 7 8 9 2 4 4 4 4 8 5 8 8 7 8 10 8 7 7 6 7 6 6 5 6 6 5 6 6 5 5 5
-0 -0 -1 -1 -1 -1 -1 -1 -1 -0 -1 -1 0 2 6 1 0 0 2 4 5 3 4 8 5 8 5 6 7 7 6 8 10 9 6 9 10 7 6 6 5 5 5 6 8 8 8 8 8 8 7 6 5 4
-0 -1 -1 -1 -0 -0 -1 -1 -1 -1 0 1 3 4 1 1 1 4 7 7 6 8 6 6 6 8 4 8 8 6 8 8 12 10 11 11 11 8 6 5 5 6 6 6 6 7 7 8 8 9 8 7 6 4
-0 -0 -0 -0 -1 -1 -1 -1 -1 0 1 2 2 0 0 4 6 9 9 7 8 10 6 7 7 6 6 5 8 7 10 10 13 8 11 12 10 6 6 6 6 6 6 7 8 8 8 8 8 9 9 7 6 5
-0 -0 -1 -1 -1 -1 -1 -1 0 1 2 1 2 5 5 6 11 12 13 10 10 6 6 6 8 7 6 6 8 9 12 12 7 11 11 11 7 7 7 7 7 7 7 8 8 8 8 8 8 8 8 7 7 5
-0 -0 -0 -1 -1 -1 -0 0 1 1 2 4 6 10 9 10 9 8 8 7 5 6 6 6 7 8 7 9 8 11 9 9 12 14 13 8 7 7 7 8 8 8 8 9 8 8 9 9 9 8 8 7 8 9
-0 -0 -0 -0 -0 -0 0 0 1 1 3 6 6 10 9 7 5 5 5 6 5 5 6 6 7 7 8 10 9 9 12 13 12 12 9 8 7 8 8 8 9 8 9 9 9 9 9 10 9 8 9 8 8 8
0 1 1 0 0 0 0 1 1 1 3 5 6 8 6 7 8 7 6 6 4 5 4 6 8 9 10 10 11 12 13 14 11 8 7 7 8 8 8 8 8 8 8 9 9 9 9 10 11 10 9 9 9 9
1 2 1 1 1 1 1 2 2 5 5 7 7 4 5 6 7 6 5 5 4 5 8 7 10 11 8 10 11 9 11 9 7 7 7 7 8 8 8 8 8 9 9 9 9 9 9 9 9 9 11 11 10 9
1 -0 0 0 1 2 2 2 4 5 8 6 7 6 5 4 6 5 4 4 5 6 6 8 6 9 10 11 10 8 7 6 6 7 7 7 7 7 8 9 8 9 8 9 9 9 8 9 10 10 10 10 10 10
0 -0 0 0 0 2 4 4 4 8 7 5 5 4 4 4 4 4 4 4 4 4 6 6 9 9 9 7 7 6 6 6 7 7 7 6 7 7 8 8 8 8 9 9 9 9 8 8 8 9 9 8 8 7
1 1 1 1 2 4 7 6 3 6 8 6 5 6 5 5 4 5 5 5 6 7 8 9 8 7 6 5 4 5 5 6 7 8 7 6 6 7 7 8 8 8 8 8 8 9 8 8 7 8 8 8 8 8
3 3 3 3 3 4 5 5 6 6 6 7 5 6 6 4 5 6 6 4 8 8 8 6 5 5 5 4 4 5 6 7 7 8 8 8 7 8 8 7 8 8 8 8 8 9 8 8 8 7 8 9 8 8
3 3 4 4 6 6 6 4 6 5 6 6 6 6 7 7 7 6 4 7 8 6 5 5 4 5 5 7 7 7 7 7 7 7 8 8 8 8 8 8 8 8 8 8 8 8 8 7 7 7 8 8 8 8
3 4 5 6 8 9 10 5 9 8 10 9 8 9 8 8 7 5 8 7 6 4 4 4 5 7 6 6 7 7 7 7 8 7 7 8 7 7 8 8 8 8 9 8 8 8 7 7 7 8 8 8 8 9
4 6 8 9 9 11 8 10 8 9 8 10 10 11 9 8 6 8 10 8 5 4 5 7 6 7 6 6 6 6 6 6 7 7 7 8 8 8 7 8 8 8 8 8 7 7 7 7 7 7 8 8 8 9
9 10 10 11 9 11 12 10 10 10 11 10 10 10 9 7 10 10 10 8 7 6 7 7 7 7 8 7 7 6 5 6 7 8 7 7 8 8 8 8 8 7 7 7 8 8 8 8 8 8 8 8 8 8
12 9 11 10 10 11 10 12 11 11 10 11 10 8 8 10 11 12 10 8 8 8 7 7 8 8 8 7 7 7 7 6 8 9 8 8 9 10 10 10 9 8 7 8 9 10 10 9 9 9 9 8 8 8
12 10 9 7 8 9 10 9 8 10 11 11 10 10 11 13 13 10 8 8 9 8 7 6 7 8 8 8 7 7 8 8 9 9 9 9 9 8 9 10 10 9 8 8 9 10 11 10 10 10 9 8 7 7
9 9 12 10 10 9 11 11 11 12 11 9 10 13 13 13 12 9 8 7 7 7 7 7 7 7 8 9 9 9 9 9 9 9 8 8 8 8 8 8 9 9 9 9 9 9 10 10 10 9 9 9 8 7
10 9 9 11 10 10 11 11 11 10 10 11 13 13 12 10 8 8 8 8 8 8 9 9 8 9 8 9 9 9 9 9 11 13 14 13 12 11 9 10 10 10 9 10 10 10 10 10 10 10 9 8 7 7
10 8 10 11 13 13 10 8 9 9 10 10 10 11 10 9 8 9 9 10 11 11 10 10 10 10 11 11 10 10 8 8 9 12 13 14 13 10 10 10 10 10 10 10 10 9 9 9 8 8 8 7 6 6
9 10 11 12 12 10 9 9 9 9 9 10 9 11 11 10 10 10 10 10 10 10 10 10 10 9 10 10 10 11 11 9 9 10 10 10 10 10 10 10 10 10 10 10 10 10 10 9 9 9 9 9 8 7
11 12 12 14 13 9 9 11 11 12 12 12 12 10 11 11 12 11 10 9 9 10 11 10 10 9 8 8 8 8 8 8 8 8 9 10 10 10 10 10 11 11 10 10 10 10 10 11 10 10 9 9 8 7
12 12 12 13 13 14 12 12 14 14 13 13 13 12 12 13 14 11 9 8 9 9 9 8 8 7 8 7 7 7 7 7 7 8 9 10 12 11 10 10 10 11 11 11 11 10 11 11 10 10 9 8 7 6